N7BDR Weather Reports


Display with metric or nautical units.
time (UTC)temp
F
wind
direction
speed
MPH
gust
MPH
rain 1hr
in
rain 24hr
in
rain mn
in
humidity
%
barometer
mb
20260506084601 43 221 1.0 10.0 0.12 0.16 0.15 84 1010.8
20260506084107 43 82 1.0 10.0 0.20 0.16 0.13 83 1010.4
20260506083613 44 30 3.0 17.0 0.38 0.14 0.13 81 1010.3
20260506083111 45 119 4.0 17.0 0.25 0.11 0.10 78 1010.1
20260506082555 47 357 5.0 17.0 0.74 0.08 0.08 74 1009.8
20260506082050 51 80 2.0 17.0 0.63 0.03 0.02 71 1009.6
20260506081552 52 334 0.0 5.0 0.00 0.02 0.00 74 1009.0
20260506080411 52 178 0.0 0.0 0.00 0.02 0.00 73 1008.2
20260506073257 52 249 0.0 0.0 0.00 0.02 0.00 69 1008.2
20260506072806 52 249 0.0 0.0 0.00 0.02 0.00 69 1008.1
20260506072250 52 275 0.0 2.0 0.00 0.02 0.00 69 1008.1
20260506071759 53 301 0.0 0.0 0.00 0.02 0.00 68 1008.3
20260506070640 53 204 0.0 1.0 0.00 0.02 0.00 67 1008.2
20260506062137 54 268 0.0 0.0 0.00 0.02 0.00 59 1007.7
20260506061640 54 288 2.0 5.0 0.00 0.02 0.00 59 1007.6
20260506061141 54 264 1.0 5.0 0.00 0.02 0.00 59 1007.5
20260506060647 54 261 0.0 4.0 0.00 0.02 0.00 60 1007.4
20260506060152 54 281 0.0 0.0 0.00 0.02 0.00 62 1007.3
20260506051325 54 315 0.0 0.0 0.00 0.02 0.02 61 1006.7
20260506050833 55 314 0.0 0.0 0.00 0.02 0.02 58 1006.7
20260506050334 55 335 0.0 0.0 0.00 0.02 0.02 56 1006.9
20260506044805 55 270 1.0 7.0 0.00 0.02 0.02 54 1006.1
20260506044305 54 252 0.0 7.0 0.00 0.02 0.02 54 1006.0
20260506043815 54 277 0.0 7.0 0.00 0.02 0.02 55 1006.1
20260506043315 54 266 1.0 7.0 0.00 0.02 0.02 55 1006.0
20260506042814 54 238 2.0 6.0 0.00 0.02 0.02 54 1005.9
20260506041628 54 189 1.0 5.0 0.00 0.02 0.02 54 1006.0
20260506034616 55 265 2.0 11.0 0.00 0.02 0.02 54 1005.7
20260506034100 55 279 2.0 11.0 0.00 0.02 0.02 54 1005.8
20260506033608 55 267 2.0 6.0 0.00 0.02 0.02 54 1005.8
20260506033055 55 243 1.0 8.0 0.00 0.02 0.02 53 1005.7
20260506032603 55 246 2.0 8.0 0.00 0.02 0.02 53 1005.6
20260506032103 55 240 2.0 8.0 0.00 0.02 0.02 53 1005.4
20260506031603 55 265 2.0 8.0 0.00 0.02 0.02 53 1005.3
20260506031100 56 170 2.0 7.0 0.00 0.02 0.02 52 1005.3
20260506030542 56 165 2.0 7.0 0.00 0.02 0.02 52 1005.2
20260506030043 56 153 2.0 7.0 0.00 0.02 0.02 52 1005.1
20260506025530 56 253 1.0 5.0 0.00 0.02 0.02 52 1005.2
20260506025012 56 244 1.0 7.0 0.00 0.02 0.02 51 1005.1
20260506023851 57 208 2.0 7.0 0.00 0.02 0.02 50 1004.9
20260506023356 57 234 1.0 7.0 0.00 0.02 0.02 50 1004.9
20260506022845 58 227 1.0 5.0 0.00 0.02 0.02 49 1004.7
20260506022353 58 194 2.0 7.0 0.00 0.02 0.02 49 1004.7
20260506021848 58 244 2.0 7.0 0.00 0.02 0.02 49 1004.6
20260506021339 59 227 2.0 9.0 0.00 0.02 0.02 48 1004.5
20260506020237 59 268 1.0 9.0 0.00 0.02 0.02 49 1004.4
20260506015733 59 185 2.0 8.0 0.00 0.02 0.02 48 1004.3
20260506015242 59 209 2.0 8.0 0.00 0.02 0.02 48 1004.3
20260506014735 60 258 2.0 8.0 0.00 0.02 0.02 48 1004.3
20260506013605 60 265 2.0 6.0 0.00 0.02 0.02 47 1004.5
20260506013053 60 258 2.0 6.0 0.00 0.02 0.02 47 1004.5
20260506012554 60 266 2.0 6.0 0.00 0.02 0.02 47 1004.4
20260506012034 60 172 1.0 7.0 0.00 0.02 0.02 47 1004.4
20260506011542 60 257 2.0 7.0 0.00 0.02 0.02 47 1004.4
20260506011037 60 200 2.0 8.0 0.00 0.02 0.02 47 1004.4
20260506010539 60 176 3.0 8.0 0.00 0.02 0.02 46 1004.4
20260506010047 60 275 2.0 10.0 0.00 0.02 0.02 46 1004.3
20260506005541 60 194 2.0 10.0 0.00 0.02 0.02 47 1004.3
20260506005039 60 209 3.0 10.0 0.00 0.02 0.02 46 1004.3
20260506004525 60 254 3.0 10.0 0.00 0.02 0.02 46 1004.3
20260506004027 61 273 1.0 6.0 0.00 0.02 0.02 46 1004.3
20260506002244 61 197 2.0 5.0 0.00 0.02 0.02 47 1004.3
20260506001739 61 270 1.0 5.0 0.00 0.02 0.02 46 1004.4
20260506001228 61 223 1.0 8.0 0.00 0.02 0.02 46 1004.5
20260506000735 61 236 2.0 8.0 0.00 0.02 0.02 46 1004.4
20260505235606 60 263 1.0 6.0 0.00 0.02 0.02 47 1004.5
20260505235100 60 249 2.0 6.0 0.00 0.02 0.02 48 1004.4
20260505234552 60 227 2.0 7.0 0.00 0.02 0.02 47 1004.5
20260505234042 60 181 2.0 7.0 0.00 0.02 0.02 49 1004.5
20260505232919 60 193 2.0 8.0 0.00 0.02 0.02 49 1004.5
20260505231737 60 268 2.0 9.0 0.00 0.02 0.02 49 1004.6
20260505231227 60 206 3.0 9.0 0.00 0.02 0.02 49 1004.7
20260505230722 60 173 2.0 7.0 0.00 0.02 0.02 51 1004.8
20260505230228 59 181 3.0 7.0 0.00 0.02 0.02 53 1004.8
20260505225721 59 242 3.0 7.0 0.00 0.02 0.02 53 1004.8
20260505224605 58 222 2.0 6.0 0.00 0.02 0.02 53 1005.0
20260505224106 58 181 2.0 7.0 0.00 0.02 0.02 56 1005.0
20260505223601 58 155 2.0 7.0 0.00 0.02 0.02 55 1005.1
20260505223055 57 265 2.0 7.0 0.00 0.02 0.02 59 1005.2
20260505222602 57 242 1.0 7.0 0.00 0.02 0.02 57 1005.2
20260505221444 55 237 1.0 4.0 0.00 0.02 0.02 64 1005.1
20260505220951 55 254 1.0 4.0 0.00 0.02 0.02 64 1005.2
20260505220430 55 269 1.0 4.0 0.00 0.02 0.02 62 1005.2
20260505215926 56 249 0.0 4.0 0.00 0.02 0.02 61 1005.3
20260505215413 56 310 0.0 4.0 0.00 0.01 0.01 61 1005.4
20260505214915 57 155 0.0 4.0 0.00 0.01 0.01 60 1005.6
20260505214417 57 245 0.0 4.0 0.00 0.01 0.01 55 1005.6
20260505213928 58 243 0.0 0.0 0.00 0.01 0.01 53 1005.5
20260505213416 58 111 0.0 0.0 0.00 0.01 0.01 51 1005.7
20260505212902 58 106 0.0 0.0 0.00 0.01 0.01 46 1005.7
20260505211732 58 249 0.0 4.0 0.00 0.01 0.01 47 1005.7
20260505211222 58 232 0.0 9.0 0.00 0.01 0.01 47 1005.6
20260505210714 58 275 1.0 9.0 0.00 0.01 0.01 48 1005.5
20260505210207 58 223 3.0 9.0 0.00 0.01 0.01 46 1005.4
20260505205031 58 148 3.0 10.0 0.00 0.01 0.01 46 1005.4
20260505204517 58 235 2.0 10.0 0.00 0.01 0.01 47 1005.3
20260505202746 57 250 4.0 10.0 0.00 0.01 0.01 49 1005.3
20260505202250 57 234 3.0 10.0 0.00 0.01 0.01 48 1005.4
20260505201747 57 166 3.0 13.0 0.00 0.01 0.01 49 1005.4
20260505201233 57 204 4.0 13.0 0.00 0.01 0.01 48 1005.3
20260505200126 57 262 3.0 13.0 0.00 0.01 0.01 49 1005.3
20260505195636 57 164 3.0 12.0 0.00 0.01 0.01 50 1005.3
20260505195145 57 167 3.0 12.0 0.00 0.01 0.01 49 1005.3
20260505194039 57 265 4.0 12.0 0.00 0.01 0.01 50 1005.2
20260505193528 57 196 4.0 11.0 0.00 0.01 0.01 49 1005.2
20260505193028 57 209 4.0 12.0 0.00 0.01 0.01 50 1005.2
20260505192527 57 218 3.0 12.0 0.00 0.01 0.01 50 1005.3
20260505192026 57 256 4.0 12.0 0.00 0.01 0.01 50 1005.3
20260505191533 57 185 4.0 12.0 0.00 0.01 0.01 49 1005.3
20260505191038 57 211 3.0 11.0 0.00 0.01 0.01 49 1005.2
20260505190538 57 197 3.0 10.0 0.00 0.01 0.01 50 1005.1
20260505190022 57 239 4.0 12.0 0.00 0.01 0.01 51 1005.0
20260505185517 56 246 3.0 12.0 0.00 0.01 0.01 51 1005.0
20260505185016 56 224 4.0 12.0 0.00 0.01 0.01 52 1005.0
20260505184515 56 254 4.0 12.0 0.00 0.01 0.01 52 1005.1
20260505184021 56 228 5.0 15.0 0.00 0.01 0.01 52 1005.1
20260505182859 56 197 6.0 18.0 0.00 0.01 0.01 52 1005.0
20260505181740 56 188 4.0 18.0 0.00 0.01 0.01 52 1004.9
20260505181223 56 197 5.0 18.0 0.00 0.01 0.01 53 1004.9
20260505180723 55 261 7.0 18.0 0.00 0.01 0.01 53 1004.8
20260505180211 55 180 7.0 18.0 0.00 0.01 0.01 53 1004.7
20260505175659 55 184 6.0 16.0 0.00 0.01 0.01 55 1004.7
20260505175147 55 145 5.0 16.0 0.00 0.01 0.01 55 1004.8
20260505174040 54 173 5.0 13.0 0.00 0.01 0.01 56 1005.1
20260505172913 54 218 5.0 16.0 0.00 0.01 0.01 56 1004.9
20260505172403 54 237 5.0 16.0 0.00 0.01 0.01 56 1004.7
20260505171857 54 220 6.0 18.0 0.00 0.01 0.01 56 1004.8
20260505171349 54 254 8.0 18.0 0.00 0.01 0.01 56 1004.6
20260505165546 54 168 8.0 23.0 0.00 0.01 0.01 56 1004.6
20260505164430 54 253 6.0 20.0 0.00 0.01 0.01 57 1004.4
20260505163912 54 194 7.0 20.0 0.00 0.01 0.01 57 1004.3
20260505163359 54 208 6.0 20.0 0.00 0.01 0.01 56 1004.3
20260505162850 54 244 6.0 15.0 0.00 0.01 0.01 57 1004.3
20260505162357 55 211 7.0 17.0 0.00 0.01 0.01 57 1004.3
20260505161902 55 185 6.0 17.0 0.00 0.01 0.01 57 1004.2
20260505161409 55 203 6.0 18.0 0.00 0.01 0.01 56 1004.3
20260505160857 54 194 6.0 18.0 0.00 0.01 0.01 57 1004.0
20260505160351 54 267 6.0 18.0 0.00 0.01 0.01 57 1004.2
20260505152702 54 173 6.0 17.0 0.00 0.01 0.01 57 1003.8
20260505152159 54 189 7.0 17.0 0.00 0.01 0.01 56 1003.9
20260505151655 55 182 5.0 17.0 0.00 0.01 0.01 54 1003.9
20260505150543 55 178 5.0 12.0 0.00 0.01 0.01 53 1003.9
20260505140254 56 154 3.0 11.0 0.00 0.01 0.01 54 1003.4
20260505125022 55 213 0.0 5.0 0.00 0.01 0.01 65 1002.5
20260505124525 55 230 0.0 8.0 0.00 0.01 0.01 65 1002.5
20260505124034 55 275 0.0 8.0 0.00 0.01 0.01 65 1002.4
20260505123544 55 243 1.0 8.0 0.00 0.01 0.01 66 1002.3
20260505123053 55 232 1.0 8.0 0.00 0.01 0.01 66 1002.3
20260505122535 55 263 0.0 6.0 0.00 0.01 0.01 66 1002.2
20260505122033 55 227 0.0 6.0 0.00 0.01 0.01 65 1002.2
20260505121520 55 280 1.0 6.0 0.00 0.01 0.01 64 1002.1
20260505121029 55 266 1.0 6.0 0.00 0.01 0.01 63 1002.1
20260505120535 55 259 1.0 5.0 0.00 0.01 0.01 64 1002.1
20260505120026 55 275 1.0 5.0 0.00 0.01 0.01 63 1002.2
20260505114259 55 244 3.0 14.0 0.00 0.01 0.01 62 1002.1
20260505113758 55 239 3.0 14.0 0.00 0.01 0.01 62 1002.1
20260505113304 55 185 1.0 9.0 0.00 0.01 0.01 66 1002.1
20260505112754 55 182 1.0 9.0 0.00 0.01 0.01 67 1002.0
20260505112247 55 256 2.0 10.0 0.00 0.01 0.01 66 1002.0
20260505111755 55 224 2.0 10.0 0.00 0.01 0.01 66 1002.0
20260505110615 55 270 3.0 10.0 0.00 0.01 0.01 65 1001.9
20260505110120 55 155 2.0 9.0 0.00 0.01 0.01 65 1001.9
20260505101342 56 222 0.0 1.0 0.00 0.00 0.00 63 1002.2
20260505100834 56 277 0.0 0.0 0.00 0.00 0.00 62 1002.2
20260505100320 56 263 0.0 3.0 0.00 0.00 0.00 62 1002.2
20260505095815 57 278 0.0 0.0 0.00 0.00 0.00 63 1002.2
20260505095310 57 268 0.0 3.0 0.00 0.00 0.00 62 1002.2
20260505094149 57 272 0.0 5.0 0.00 0.00 0.00 61 1002.2
20260505093636 57 266 0.0 5.0 0.00 0.00 0.00 62 1002.2
20260505093138 57 263 0.0 4.0 0.00 0.00 0.00 62 1002.2
20260505092625 57 256 0.0 4.0 0.00 0.00 0.00 63 1002.1
20260505092115 56 258 0.0 2.0 0.00 0.00 0.00 64 1002.1
20260505091618 56 271 0.0 1.0 0.00 0.00 0.00 65 1002.1
20260505091116 56 260 0.0 0.0 0.00 0.00 0.00 64 1002.1
20260505090604 56 258 1.0 4.0 0.00 0.00 0.00 64 1002.2
20260505085437 56 256 1.0 7.0 0.00 0.00 0.00 64 1002.2
20260505084936 56 239 2.0 7.0 0.00 0.00 0.00 64 1002.2